Overview Statistics Trail Chart Weather Telemetry Raw packets
 

This is the latest recevied weather packets stored in our database for station/object N8TWM-13. If no packets are shown the sender has not sent any weather packets the latest 10 day(s).

<< 1 2 3 4 >>
Time Temp. Humidity Pressure Rain* Wind** Luminosity Snow
1788620215 22.22° C 96% 1015.3 hPa 0 mm - 216 W/m² -
1788619915 22.22° C 97% 1015.3 hPa 0 mm - 232 W/m² -
1788619609 21.67° C 97% 1015.1 hPa 0 mm - 235 W/m² -
1788619303 21.67° C 97% 1015.2 hPa 0 mm - 228 W/m² -
1788618997 21.67° C 97% 1015 hPa 0 mm - 163 W/m² -
1788618692 21.67° C 97% 1015.2 hPa 0 mm - 275 W/m² -
1788618391 21.67° C 97% 1015.1 hPa 0 mm - 486 W/m² -
1788618091 21.67° C 97% 1015.1 hPa 0 mm - 615 W/m² -
1788617790 21.11° C 97% 1015.4 hPa 0 mm - 275 W/m² -
1788617487 21.11° C 97% 1015.1 hPa 0 mm - 124 W/m² -
1788617182 21.11° C 97% 1015 hPa 0 mm - 105 W/m² -
1788616881 21.11° C 97% 1015.1 hPa 0 mm - 79 W/m² -
1788616577 21.11° C 97% 1015.1 hPa 0 mm - 62 W/m² -
1788616272 21.11° C 97% 1015.2 hPa 0 mm - 96 W/m² -
1788615967 20.56° C 97% 1015 hPa 0 mm - 131 W/m² -
1788615669 20.56° C 97% 1015.1 hPa 0 mm - 76 W/m² -
1788615361 20.56° C 97% 1015 hPa 0 mm - 69 W/m² -
1788615061 20.56° C 97% 1015 hPa 0 mm - 55 W/m² -
1788614761 20.56° C 97% 1015 hPa 0 mm - 49 W/m² -
1788614455 20.56° C 97% 1015.1 hPa 0 mm - 32 W/m² -
1788614151 20.56° C 97% 1015.3 hPa 0 mm - 41 W/m² -
1788613846 20.56° C 97% 1015.1 hPa 0 mm - 48 W/m² -
1788613545 20.56° C 97% 1015.1 hPa 0 mm - 66 W/m² -
1788613240 20.56° C 97% 1015.1 hPa 0 mm - 57 W/m² -
1788612939 20.56° C 97% 1015 hPa 0 mm - 69 W/m² -

* Rain latest hour (hover to see other rain measurements)
** Current wind speed in m/s (hover to see current wind gust speed)